www.pogodaiklimat.ru
Время
(UTC), дата
06 24.07
09 24.07
12 24.07
15 24.07
18 24.07
21 24.07
00 25.07
03 25.07
06 25.07
09 25.07
12 25.07
15 25.07
18 25.07
21 25.07
00 26.07
03 26.07
06 26.07
09 26.07
12 26.07
15 26.07
18 26.07
21 26.07
00 27.07
03 27.07
06 27.07
09 27.07
12 27.07
15 27.07
18 27.07
21 27.07
00 28.07
03 28.07
06 28.07
09 28.07
12 28.07
15 28.07
18 28.07
21 28.07
00 29.07
03 29.07
06 29.07
09 29.07
12 29.07
15 29.07
18 29.07
21 29.07
00 30.07
03 30.07
06 30.07
09 30.07
12 30.07
15 30.07
18 30.07
21 30.07
00 31.07
03 31.07
Ветер
(напр.,м/с)
Видим. Явления Облачность Т
(С)
Тd
(С)
f
(%)
Тe
(С)
Тes
(С)
Комфортность P
(гПа)
Po
(гПа)
Тmin
(С)
Tmax
(С)
R
(мм)
R24
(мм)
S
(см)
СЗ 5 20 км 8/3 600 м
[Cu med, cong Ac As Ci fib]
+26.2 +17.4 58 +30 +33 душно 1010.4 1012.5
С 4
{10}
20 км 10/5 600 м
[Cb calv Ac As]
+27.4 +16.7 52 +31 +33 душно 1010.5 1012.6
СЗ 2 20 км 10/5 600 м
[Cb calv Ac As]
+27.7 +15.7 48 +31 +32 душно 1010.5 1012.6
СЗ 1 20 км 4/0
[Ac As Ci fib]
+29.2 +16.0 45 +32 +33 душно 1010.9 1012.9 +29.2
СЗ 1 20 км 10/4 600 м
[Sc Ac As]
+26.7 +17.3 56 +31 +31 душно 1012.2 1014.3
З 2 10 км слаб. ливневой дождь 10/10 600 м
[Cb calv]
+23.1 +18.7 76 +29 +29 очень
душно
1013.9 1016.0
СЗ 1 10 км {ливн. дождь} 10/6 600 м
[Sc Ac As]
+22.8 +19.1 80 +29 +29 очень
душно
1014.0 1016.1
В 1 20 км {ливн. дождь} 9/4 600 м
[Sc Ac As Ci fib]
+23.4 +19.7 80 +30 +31 очень
душно
1014.6 1016.7 +22.1 2
В 1 20 км 9/4 600 м
[Sc Ac cast Ci fib]
+26.4 +20.9 72 +33 +38 очень
душно
1015.4 1017.5
В 2 20 км 9/0
[Ac cast Ci fib]
+27.5 +21.6 70 +35 +46 очень
душно
1015.4 1017.5
В 2 20 км 8/0
[Ac cast Ci fib]
+28.2 +22.1 70 +37 +44 очень
душно
1015.4 1017.5
ЮВ 1 10 км 9/0
[Ac cast Ci fib]
+26.6 +22.2 77 +35 +35 очень
душно
1015.5 1017.6 +29.0
штиль 0 10 км 9/0
[Ac cast Ci fib]
+25.8 +21.2 76 +33 +33 очень
душно
1016.4 1018.5
штиль 0 10 км 8/0
[Ac cast Ci fib]
+23.2 +20.2 83 +30 +30 очень
душно
1016.6 1018.7
С 1 20 км 6/0
[Ac cast Ci fib]
+23.2 +19.8 81 +30 +30 очень
душно
1016.3 1018.4
ЮВ 1 20 км 9/4 600 м
[Sc Ac cast Ci fib]
+23.3 +20.6 85 +31 +31 очень
душно
1016.9 1019.0 +22.3
В 1 10 км {ливн. дождь} 6/3 600 м
[Sc Ac As Ci fib]
+28.1 +19.7 60 +34 +42 очень
душно
1017.1 1019.1
ЮВ 2 10 км ясно +30.0 +22.4 64 +39 +58 опасность
солнечного
удара
1016.5 1018.5
ЮВ 2 10 км ясно +30.2 +22.9 65 +40 +51 опасность
солнечного
удара
1015.2 1017.2
ЮВ 2 10 км 4/0
[Ac As Ci fib]
+28.2 +20.7 64 +35 +36 очень
душно
1015.0 1017.1 +30.2 0.0
ЮВ 1 10 км 9/4 600 м
[Sc Ac As Ci fib]
+27.6 +20.6 66 +34 +34 очень
душно
1015.4 1017.4
штиль 0 10 км 8/3 600 м
[Sc Ac As Ci fib]
+27.0 +20.2 66 +33 +33 очень
душно
1015.3 1017.4
СВ 1 10 км в посл. час ливневой дождь 10/3 600 м
[Cb calv Ac As]
+26.3 +21.2 74 +33 +33 очень
душно
1014.5 1016.5
СЗ 1 10 км {ливн. дождь} 6/3 600 м
[Sc Ac As Ci fib]
+24.8 +20.0 75 +30 +31 душно 1014.7 1016.8 +24.8 0.3
ЮВ 3 20 км 3/1 600 м
[Sc Ac cast]
+28.5 +17.7 52 +33 +40 очень
душно
1014.1 1016.1
В 1 20 км 8/3 600 м
[Sc Ac cast Ci fib]
+29.6 +16.3 45 +33 +43 душно 1013.5 1015.5
СВ 3 20 км 6/0
[Ac cast Ci fib]
+28.0 +18.6 57 +33 +39 очень
душно
1012.7 1014.7
СВ 3 20 км 8/3 600 м
[Sc Ac cast Ci fib]
+27.0 +17.3 55 +31 +31 душно 1013.3 1015.4 +29.8
СЗ 3 10 км слаб. ливневой дождь {гроза} 10/10 600 м
[Cb cap]
+26.0 +15.9 54 +29 +29 душно 1017.2 1019.3
СЗ 1 10 км {гроза, ливн. дождь} 10/6 600 м
[Sc Ac As]
+21.7 +17.4 77 +26 +26 душно 1016.3 1018.4
С 3 10 км 10/6 600 м
[Sc Ac As]
+21.4 +16.9 76 +25 +25 комфорт 1015.0 1017.1
СЗ 3 10 км 10/8 600 м
[Sc Ac As]
+19.6 +14.6 73 +22 +22 комфорт 1017.3 1019.4 +19.2 2
СЗ 4 10 км 10/8 600 м
[Sc Ac As]
+19.5 +14.0 71 +21 +22 комфорт 1018.2 1020.4 +18.7
СЗ 4 10 км 10/8 600 м
[Sc Ac As]
+20.4 +13.2 63 +23 +23 комфорт 1018.0 1020.1
СЗ 3 10 км 10/8 600 м
[Sc Ac As]
+21.6 +13.9 62 +24 +25 комфорт 1017.6 1019.7
СЗ 2 10 км 10/8 600 м
[Sc Ac As]
+21.8 +14.6 64 +25 +25 комфорт 1017.2 1019.3 +22.4
СЗ 2 10 км 10/8 600 м
[Sc Ac As]
+20.9 +15.4 71 +25 +25 комфорт 1017.7 1019.8
С 1 20 км ясно +19.0 +14.1 73 +21 +21 комфорт 1016.1 1018.3
СЗ 1 20 км 9/5 600 м
[Sc Ac As Ci fib]
+17.1 +14.4 84 +18 +18 тепло 1015.4 1017.6
З 1 20 км 9/0
[Ci fib]
+17.7 +15.6 88 +19 +20 тепло 1016.3 1018.5 +15.7
В 1 10 км 6/0
[Ac As Ci fib]
+25.5 +13.6 48 +28 +38 жарко 1015.9 1018.0
ЮВ 3 10 км 8/4 600 м
[Sc Ac As Ci fib]
+25.9 +15.7 53 +29 +35 душно 1015.2 1017.3
ЮВ 3 10 км 9/4 600 м
[Sc Ac As Ci fib]
+26.8 +14.8 48 +29 +32 жарко 1014.0 1016.1
ЮВ 2 10 км 10/3 600 м
[Sc Ac As]
+26.2 +13.2 45 +28 +28 жарко 1013.2 1015.2 +27.3
ЮВ 2 10 км 8/3 600 м
[Sc Ac As Ci fib]
+24.8 +17.7 65 +29 +29 душно 1013.7 1015.8
ЮВ 2 10 км 9/4 600 м
[Sc Ac As Ci fib]
+24.0 +17.6 67 +28 +28 душно 1013.0 1015.0
Ю 2 10 км 6/3 600 м
[Sc Ac As Ci fib]
+23.4 +17.6 70 +29 +29 душно 1012.4 1014.5
ЮВ 2 10 км 4/0
[Ci fib]
+24.6 +14.8 54 +27 +28 жарко 1012.5 1014.6 +23.3
ЮВ 4 10 км ясно +27.4 +17.1 53 +31 +39 душно 1012.4 1014.5
ЮВ 3 10 км ясно +28.5 +19.3 57 +34 +49 очень
душно
1011.7 1013.8
ЮВ 3 10 км ясно +28.3 +20.7 63 +35 +44 очень
душно
1010.3 1012.3
ЮВ 4 10 км ясно +26.4 +20.9 72 +33 +34 очень
душно
1009.5 1011.6 +29.1
ЮВ 3 10 км ясно +25.3 +20.6 75 +31 +31 очень
душно
1009.8 1011.8
ЮВ 2 н/о н/о +24.4 +21.4 83 +31 +31 очень
душно
1009.5 1011.6
Ю 2 10 км 3/0
[Ci fib]
+23.9 +19.4 76 +29 +29 душно 1009.4 1011.5
З 1 10 км ясно +21.2 +16.1 73 +25 +26 комфорт 1009.8 1011.9 +20.0
Местоположение метеостанции Махачкала (Дагестан, Россия): широта 43.02 долгота 47.48 высота над уровнем моря -19 м.
В архиве по умолчанию представлена погода в Махачкале за последнюю неделю. Архивные данные за месяц целиком и за предыдущие месяцы, начиная с января 2011 года, Вы можете получить, выбрав интересующий диапазон дат из раскрывающегося списка и нажав кнопку "Найти!".
*Определитесь, кто Вы:
Внимание! Время в таблицах - всемирное. Для получения местного времени необходимо прибавить поправку, которая равна 3 ч.
Смотрите также архив погоды в соседних городах и на ближайших метеорологических станциях:
Партнеры нашего сайта:      
Пояснения к столбцам:
  • Ветер - указаны скорость ветра в м/с - средняя за 10 мин, порывы в срок и между сроками (в фигурных скобках) и направление, откуда дует ветер: С - северный,
  • СВ - северо-восточный, В - восточный, ЮВ - юго-восточный, Ю - южный, ЮЗ - юго-западный, З - западный, СЗ - северо-западный.
  • Видимость - горизонтальная дальность видимости в метрах или километрах. При видимости от 1 до 10 км при отсутствии осадков обычно наблюдается дымка, при ухудшении видимости до 1 км и менее - туман. В сухую погоду видимость может ухудшаться дымом, пылью или мглою.
  • Явления - указаны атмосферные явления, наблюдавшиеся в срок или в последний час перед сроком; фигурными скобками обозначены явления, наблюдавшиеся между сроками (за 1-3 часа до срока); квадратными скобками обозначены град или гололедные отложения с указанием их диаметра в мм.
  • Облачность - указаны через наклонную черту общая и нижняя облачность в баллах и высота нижней границы облаков в метрах; квадратными скобками обозначены формы облаков: Ci - перистые, Cs - перисто-слоистые, Cc - перисто-кучевые, Ac - высококучевые, As - высокослоистые, Sc - слоисто-кучевые, Ns - слоисто-дождевые, Cu - кучевые, Cb - кучево-дождевые. Подробнее классификацию облаков см. в Атласе облаков (PDF).
  • T - Температура воздуха - температура, измеренная на высоте 2 м над землей.
  • Td - Температура точки росы - температура, при понижении до которой содержащийся в воздухе водяной пар достигнет насыщения.
  • f - Относительная влажность воздуха - влажноcть воздуха, измеренная на высоте 2 м над землей.
  • Te - Эффективная температура - температура, которую ощущает одетый по сезону человек в тени. Характеристика душности погоды. При расчете учитывается влияние влажности воздуха и скорости ветра на теплоощущения человека.
  • Tes - Эффективная температура на солнце - температура, которую ощущает человек, с поправкой на солнечный нагрев. Характеристика знойности погоды. Зависит от высоты солнца над горизонтом, облачности и скорости ветра. Ночью, в пасмурную погоду, а также при ветре 12 м/с и более поправка равна нулю.
  • P - Атмосферное давление - приведенное к уровню моря атмосферное давление.
  • Po - Атмосферное давление - измеренное на уровне метеостанции атмосферное давление.
  • Tmin - Минимальная температура - минимум температуры воздуха на высоте 2 м над землей.
  • Tmax - Максимальная температура - максимум температуры воздуха на высоте 2 м над землей.
  • R - Количество осадков - Количество выпавших осадков за период времени, мм. При наведении курсора мыши на число - период времени, за который выпало указанное количество осадков.
  • R24 - Количество осадков - Количество выпавших осадков за 24 часа, мм.
  • S - Снежный покров - Высота снежного покрова, см. При наведении курсора мыши на число - состояние снежного покрова и степень покрытия местности в баллах.